Lexington Weather

Lexington, Massachusetts, USA

25°F
1/21/2021 10:20am 
  • Lexington Conditions: Clear
  • Temperature: 25.2°F / -3.8°CWarmer 2.2°F than last hour.
  • Dew Point: 13.6°FIncreased 1.4°Fsince last hour.
  • Relative Humidity: 61%Decreased 2.0% since last hour.
  • Wind: Calm, 10-min avg: Calm, gust: 1 mph
  • Barometer: 29.78 in Steady
  • Visibility: 10 miles
  • Snow Today: 0.0 in
  •   

Regional Weather Roundup
for Boston / Norton, MA

        
000
ASUS41 KBOX 150505
RWRBOX

REGIONAL WEATHER ROUNDUP
NATIONAL WEATHER SERVICE BOSTON/NORTON MA
1200 AM EST FRI JAN 15 2021

NOTE:  "FAIR" INDICATES FEW OR NO CLOUDS BELOW 12,000 FEET WITH NO 
SIGNIFICANT WEATHER AND/OR OBSTRUCTIONS TO VISIBILITY.

MAZALL-150600-
EASTERN MASSACHUSETTS
  
CITY           SKY/WX    TMP DP  RH WIND       PRES   REMARKS
BOSTON         DRIZZLE   34  33  96 NW8       29.93R FOG     WCI  27  
BEVERLY        CLOUDY    35  33  92 NW7       29.91S FOG     WCI  29  
LAWRENCE       CLOUDY    34  33  96 N3        29.94S FOG              
BEDFORD        CLOUDY    34  33  96 CALM      29.91S FOG              
BLUE HILL        N/A     33  33 100 N6        29.88R WCI  28          
NORWOOD        CLOUDY    36  33  89 NW6       29.92R FOG     WCI  31  
MARSHFIELD     CLOUDY    39  39 100 CALM      29.90S FOG              
PLYMOUTH       CLOUDY    38  36  92 N6        29.90R FOG              
TAUNTON        CLOUDY    38  35  89 N3        29.90R FOG              
NEW BEDFORD    CLOUDY    39  36  89 VRB5      29.89R                  
$$

MAZALL-150600-
CAPE COD AND THE ISLANDS
  
CITY           SKY/WX    TMP DP  RH WIND       PRES   REMARKS
FALMOUTH       CLOUDY    39  37  93 NE9       29.88R FOG              
HYANNIS        CLOUDY    41  39  93 N8        29.87R                  
CHATHAM        CLOUDY    41  38  89 NE5       29.89R                  
PROVINCETOWN   CLOUDY    39  37  92 N7        29.91R                  
NANTUCKET      CLOUDY    42  41  96 NE7       29.86S                  
MARTHAS VNYRD  CLOUDY    41  39  93 N10       29.88R FOG              
$$
 
MAZALL-150600-
CENTRAL AND WESTERN MASSACHUSETTS
  
CITY           SKY/WX    TMP DP  RH WIND       PRES   REMARKS
WORCESTER      FOG       33  31  92 NE6       29.88R VSB 1/4 WCI  28  
FITCHBURG      CLOUDY    34  34 100 CALM      29.92S FOG              
ORANGE         CLOUDY    33  32  96 CALM      29.91R FOG              
SPRINGFIELD    CLOUDY    33  33  99 CALM      29.90R FOG              
WESTFIELD      CLOUDY    33  33 100 CALM      29.91R FOG              
NORTH ADAMS    CLOUDY    32  29  88 CALM      29.90R FOG              
PITTSFIELD     CLOUDY    32  31  96 CALM      29.87R FOG              
$$
 
RIZALL-150600-
RHODE ISLAND
  
CITY           SKY/WX    TMP DP  RH WIND       PRES   REMARKS
PROVIDENCE     CLOUDY    38  35  89 N7        29.91R                  
NEWPORT        CLOUDY    38  36  92 N9        29.89R FOG     WCI  31  
BLOCK ISLAND   CLOUDY    39  36  89 NE10      29.89R                  
SMITHFIELD     CLOUDY    34  34 100 NE6       29.90R FOG     WCI  29  
WESTERLY       CLOUDY    37  34  89 N5        29.89R FOG              
$$
 
CTZALL-150600-
CONNECTICUT
  
CITY           SKY/WX    TMP DP  RH WIND       PRES   REMARKS
BRADLEY INTL   CLOUDY    34  32  92 N3        29.91R FOG              
HARTFORD       CLOUDY    36  33  89 NE5       29.92R FOG              
BRIDGEPORT     CLOUDY    39  33  79 N5        29.91                   
DANBURY        CLOUDY    31  29  92 CALM      29.91R FOG              
GROTON         CLOUDY    39  35  86 NE5       29.89R FOG              
NEW HAVEN      CLOUDY    39  34  82 N8        29.90R HAZE             
CHESTER        CLOUDY    37  34  87 N7        29.89R FOG              
MERIDEN        CLOUDY    37  32  82 N3        29.91R                  
WILLIMANTIC    CLOUDY    36  33  89 N3        29.91R FOG              
OXFORD         CLOUDY    35  35 100 N5        29.89R WCI  31          
$$

MEZ002-015-021-024-NHZ003-005-008-011-012-014-VTZ005-008-150600-
NORTHERN NEW ENGLAND
  
CITY           SKY/WX    TMP DP  RH WIND       PRES   REMARKS
PORTLAND ME    CLOUDY    33  26  75 W3        29.94R                  
BANGOR ME      CLOUDY    31  25  78 NW3       29.93S                  
CONCORD NH     CLOUDY    31  26  82 CALM      29.92S                  
MANCHESTER NH  CLOUDY    34  31  88 N5        29.91S FOG     WCI  30  
NASHUA NH      CLOUDY    33  33 100 NW3       29.93S FOG              
PORTSMOUTH NH  CLOUDY    34  29  83 NW5       29.91R WCI  30          
JAFFREY NH     CLOUDY    32  28  85 CALM      29.88S FOG              
KEENE NH       CLOUDY    31  29  92 CALM      29.92R FOG              
BURLINGTON VT  CLOUDY    33  27  78 CALM      29.93S                  
MT. WASHINGTON FOG       14  14 100 N3          N/A  VSB 1/16         
$$

NYZ052-076-150600-
EASTERN NEW YORK
  
CITY           SKY/WX    TMP DP  RH WIND       PRES   REMARKS
ALBANY         CLOUDY    31  28  89 CALM      29.93R                  
NEW YORK CITY  MOCLDY    43  33  68 N6        29.90R                  
$$
 
ANZALL-150600-
MARINE OBSERVATIONS
  
STATION/POSITION TIME  TEMP    WIND        PRES    VSBY  WAVE
                       AIR SEA DIR/SP/G                  HT/PER
                 (UTC) (F)     (DEG/KT/KT) (MB)    (MI)  (FT/S)
BOSTON BUOY      0440   39 43   20/  8/ 10 1013.2R
BUZZARDS BAY     0400           20/ 11/ 12 1012.5R
NANTUCKET SOUND  0440      41  360/ 12/ 14   N/A
MASS BAY-STELLWA 0404   40      50/  8/ 12 1011.6R  1 7/8  1
ISLE OF SHOALS   0400   37     350/  7/  7 1012.8R
S OF BLOCK IS    0426      47                N/A           2/ 8
$$

......................KEY.........................
  SKY/WX - SKY CONDITION/PRESENT WEATHER
  TMP    - TEMPERATURE IN FAHRENHEIT
  DWPT   - DEWPOINT IN FAHRENHEIT
  RH     - RELATIVE HUMIDITY IN PERCENT
  WIND   - DIRECTION AND SPEED IN MPH
  PRES   - MEAN SEA LEVEL PRESSURE IN INCHES OF HG
  WCI    - WIND CHILL INDEX
  VSB    - VISIBILITY IN MILES
  HX     - HEAT INDEX
  TC     - TEMPERATURE IN CELSIUS
  VRB    - VARIABLE WIND DIRECTION
  N/A    - NOT AVAILABLE
  
      

Other recent Regional Weather Roundups

Thu Jan 21, 9:04am

Thu Jan 21, 7:04am

Thu Jan 21, 6:04am

Thu Jan 21, 5:04am

Thu Jan 21, 4:04am

Thu Jan 21, 3:04am

Thu Jan 21, 2:04am

Thu Jan 21, 1:04am

Thu Jan 21, 12:04am

Wed Jan 20, 11:04pm

Wed Jan 20, 10:05pm

Wed Jan 20, 9:04pm

Wed Jan 20, 8:04pm

Wed Jan 20, 7:04pm

Wed Jan 20, 6:05pm

Wed Jan 20, 5:05pm

Wed Jan 20, 1:04pm

Wed Jan 20, 12:04pm

Wed Jan 20, 11:04am

Wed Jan 20, 10:04am

Wed Jan 20, 9:05am

Wed Jan 20, 8:04am

Wed Jan 20, 7:04am

Wed Jan 20, 6:04am

Wed Jan 20, 5:04am

Wed Jan 20, 4:04am

Wed Jan 20, 3:05am

Wed Jan 20, 2:04am

Wed Jan 20, 1:04am

Wed Jan 20, 12:04am

Tue Jan 19, 11:04pm

Tue Jan 19, 10:04pm

Tue Jan 19, 9:04pm

Tue Jan 19, 8:04pm

Tue Jan 19, 7:04pm

Tue Jan 19, 6:05pm

Tue Jan 19, 5:04pm

Tue Jan 19, 4:05pm

Tue Jan 19, 3:04pm

Tue Jan 19, 2:04pm

Tue Jan 19, 1:04pm

Tue Jan 19, 12:05pm

Tue Jan 19, 11:04am

Tue Jan 19, 10:05am

Tue Jan 19, 9:04am

Tue Jan 19, 8:04am

Tue Jan 19, 7:04am

Tue Jan 19, 6:04am

Tue Jan 19, 5:04am

Tue Jan 19, 4:04am

Tue Jan 19, 3:04am

Tue Jan 19, 2:04am

Tue Jan 19, 1:04am

Tue Jan 19, 12:04am

Mon Jan 18, 11:04pm

Mon Jan 18, 10:04pm

Mon Jan 18, 9:04pm

Mon Jan 18, 8:05pm

Mon Jan 18, 7:04pm

Mon Jan 18, 6:05pm

Mon Jan 18, 5:04pm

Mon Jan 18, 4:04pm

Mon Jan 18, 3:04pm

Mon Jan 18, 2:04pm

Mon Jan 18, 1:04pm

Mon Jan 18, 12:04pm

Mon Jan 18, 11:04am

Mon Jan 18, 10:04am

Mon Jan 18, 9:04am

Mon Jan 18, 8:04am

Mon Jan 18, 7:04am

Mon Jan 18, 6:04am

Mon Jan 18, 5:04am

Mon Jan 18, 4:04am

Mon Jan 18, 3:04am

Mon Jan 18, 2:04am

Mon Jan 18, 1:04am

Mon Jan 18, 12:04am

Sun Jan 17, 11:04pm

Sun Jan 17, 10:04pm

Sun Jan 17, 9:04pm

Sun Jan 17, 8:04pm

Sun Jan 17, 7:04pm

Sun Jan 17, 6:04pm

Sun Jan 17, 5:04pm

Sun Jan 17, 4:05pm

Sun Jan 17, 3:04pm

Sun Jan 17, 2:04pm

Sun Jan 17, 1:04pm

Sun Jan 17, 12:04pm

Sun Jan 17, 11:04am

Sun Jan 17, 10:04am

Sun Jan 17, 9:04am

Sun Jan 17, 8:04am

Sun Jan 17, 7:04am

Sun Jan 17, 6:04am

Sun Jan 17, 5:04am

Sun Jan 17, 4:04am

Sun Jan 17, 3:04am

Sun Jan 17, 2:04am

Sun Jan 17, 1:04am

Sun Jan 17, 12:04am

Sat Jan 16, 11:05pm

Sat Jan 16, 10:04pm

Sat Jan 16, 9:04pm

Sat Jan 16, 8:05pm

Sat Jan 16, 7:04pm

Sat Jan 16, 6:04pm

Sat Jan 16, 5:05pm

Sat Jan 16, 4:05pm

Sat Jan 16, 3:05pm

Sat Jan 16, 2:04pm

Sat Jan 16, 1:04pm

Sat Jan 16, 12:04pm

Sat Jan 16, 11:04am

Sat Jan 16, 10:05am

Sat Jan 16, 9:04am

Sat Jan 16, 8:04am

Sat Jan 16, 7:04am

Sat Jan 16, 6:04am

Sat Jan 16, 5:04am

Sat Jan 16, 4:04am

Sat Jan 16, 3:05am

Sat Jan 16, 2:04am

Sat Jan 16, 1:04am

Sat Jan 16, 12:05am

Fri Jan 15, 11:05pm

Fri Jan 15, 10:04pm

Fri Jan 15, 9:04pm

Fri Jan 15, 8:04pm

Fri Jan 15, 7:05pm

Fri Jan 15, 6:05pm

Fri Jan 15, 5:05pm

Fri Jan 15, 4:05pm

Fri Jan 15, 3:04pm

Fri Jan 15, 2:05pm

Fri Jan 15, 1:04pm

Fri Jan 15, 12:05pm

Fri Jan 15, 11:04am

Fri Jan 15, 10:04am

Fri Jan 15, 9:05am

Fri Jan 15, 8:04am

Fri Jan 15, 7:04am

Fri Jan 15, 6:04am

Fri Jan 15, 5:05am

Fri Jan 15, 4:04am

Fri Jan 15, 3:04am

Fri Jan 15, 2:04am

Fri Jan 15, 1:04am

Thu Jan 14, 11:04pm

Thu Jan 14, 10:04pm

Thu Jan 14, 9:04pm

Thu Jan 14, 8:05pm

Thu Jan 14, 7:04pm

Thu Jan 14, 6:04pm

Thu Jan 14, 5:04pm

Thu Jan 14, 4:05pm

Thu Jan 14, 3:04pm

Thu Jan 14, 2:04pm

Thu Jan 14, 1:04pm

Thu Jan 14, 12:05pm

Thu Jan 14, 11:05am

Thu Jan 14, 10:04am

Thu Jan 14, 9:04am

Thu Jan 14, 8:04am

Thu Jan 14, 7:04am

Thu Jan 14, 6:04am

Thu Jan 14, 5:04am

Thu Jan 14, 4:04am

Thu Jan 14, 3:04am

Thu Jan 14, 2:04am

Thu Jan 14, 1:04am

Thu Jan 14, 12:04am

Wed Jan 13, 11:04pm

Wed Jan 13, 10:04pm

Wed Jan 13, 9:04pm

Wed Jan 13, 8:05pm

Wed Jan 13, 7:04pm

Wed Jan 13, 6:04pm

Wed Jan 13, 5:04pm

Wed Jan 13, 4:04pm

Wed Jan 13, 3:05pm

Wed Jan 13, 2:04pm

Wed Jan 13, 1:04pm

Wed Jan 13, 12:04pm

Wed Jan 13, 11:04am

Wed Jan 13, 10:04am

Wed Jan 13, 9:05am

Wed Jan 13, 8:04am

Wed Jan 13, 7:04am

Wed Jan 13, 6:04am

Wed Jan 13, 5:04am

Wed Jan 13, 4:04am

Wed Jan 13, 3:04am

Wed Jan 13, 2:04am

Wed Jan 13, 1:04am

Wed Jan 13, 12:05am

Tue Jan 12, 11:04pm

Tue Jan 12, 10:04pm

Tue Jan 12, 9:04pm

Tue Jan 12, 8:05pm

Tue Jan 12, 7:04pm

Meta data:

ID: 708df2ca-155d-472a-b619-18cebb97750b
Link: https://api.weather.gov/products/708df2ca-155d-472a-b619-18cebb97750b